Address 0xa510986309460a0306a0082f6e449c8555f31a49 1

Txn Hash Method
Block
From
To
Value [Txn Fee]
0x6ab9be4b1131e567db41abf10d0dfc388699a5a39e092b9d54584075e76428a7Stake68228762023-02-05 12:16:322 days 22 hrs ago0xa510986309460a0306a0082f6e449c8555f31a49OUT Tectonic: Staking Pool0 CRO0.4533002760430
0x91e6e5511bae530299b47ca9d596a549b997dc1f0b50eba4791f287a9a058498Deposit68228712023-02-05 12:16:032 days 22 hrs ago0xa510986309460a0306a0082f6e449c8555f31a49OUT 0xff9361dff9f485f563b6e947b4adc51f9190a2c80 CRO0.4174047697190
0x6bb1ee740369e8cd100e893fe9ee1c8b538988c9c96c17a6f5c491b313d5132fClaim Tonic67709592023-02-02 2:46:146 days 7 hrs ago0xa510986309460a0306a0082f6e449c8555f31a49OUT 0x96f41541c0a63e5229089c528fc9e0d3a8d7e84c0 CRO4.6892868226420
0x76a8f9978ab2505923408f3c6ea7cf5351a20de534eecf95aea21ca1c863f4cdPull And Convert...67709282023-02-02 2:43:186 days 7 hrs ago0xa510986309460a0306a0082f6e449c8555f31a49OUT 0xc817176c6bb58fc5f67eec947ad2cfe588c9e1c30 CRO3.8284865591410
0x48537c5c95f13a9ae2b96c0730facd162e673533ca2415b9174761f2629050ceMint67709142023-02-02 2:42:006 days 7 hrs ago0xa510986309460a0306a0082f6e449c8555f31a49OUT 0xfe6934fdf050854749945921faa83191bccf20ad0 CRO0.8163173853060
0x07fd23a8a0ba32a6cfb3644255daa582b1c124afb750c3da9bce8a8dd6991ffaDeposit67709022023-02-02 2:40:516 days 7 hrs ago0xa510986309460a0306a0082f6e449c8555f31a49OUT 0xff9361dff9f485f563b6e947b4adc51f9190a2c80 CRO0.4176119047650
0x140c9e7a5131838803ce47708e5b3c561c9b9ef226cb5ff523acbb01b5c7528dDeposit67708972023-02-02 2:40:236 days 7 hrs ago0xa510986309460a0306a0082f6e449c8555f31a49OUT 0xff9361dff9f485f563b6e947b4adc51f9190a2c80 CRO0.3657954784650
0xfe204afa9fc3dba00f8c4a219802c5a79af9ea5912257fd8013f415c9be9eaddDeposit67250462023-01-30 2:33:549 days 8 hrs ago0xa510986309460a0306a0082f6e449c8555f31a49OUT 0xff9361dff9f485f563b6e947b4adc51f9190a2c80 CRO0.4177944744470
0x50ae739753188f66fd3d84d5401d410eeee3f1327d839caeabb9e172aa50b799Deposit66152742023-01-22 21:46:0716 days 12 hrs ago0xa510986309460a0306a0082f6e449c8555f31a49OUT 0xff9361dff9f485f563b6e947b4adc51f9190a2c80 CRO0.5007867000990
0x6c4efe1ee51ec40a87d70be5fe0434eec64beeda841333ac4371220f60373890Mint65888992023-01-21 4:21:3618 days 6 hrs ago0xa510986309460a0306a0082f6e449c8555f31a49OUT 0xfe6934fdf050854749945921faa83191bccf20ad0 CRO0.8177322864270
0xf65d8b1191639b24d58f8b07d0336ab603ccf65d15e9c82f283352bc293e6ed9Deposit65888782023-01-21 4:19:3718 days 6 hrs ago0xa510986309460a0306a0082f6e449c8555f31a49OUT 0xff9361dff9f485f563b6e947b4adc51f9190a2c80 CRO1.2884525574260
0xfae5a2f82c3d504dc5757e0e0b9ea1eff909707b3d68712a1dc353016a36e498Deposit65888622023-01-21 4:18:0618 days 6 hrs ago0xa510986309460a0306a0082f6e449c8555f31a49OUT 0xff9361dff9f485f563b6e947b4adc51f9190a2c80 CRO0.5009106876050
0x5559290a6be3dee96b4cc8303ad3d0f00ce32dab4f6fde08d6e8ab86e010bb86Stake63428602023-01-05 1:12:2934 days 9 hrs ago0xa510986309460a0306a0082f6e449c8555f31a49OUT Tectonic: Staking Pool0 CRO0.5061882070720
0xcfb099443a1f28bea6e5a80d4c644e5c3151780c7c447aae6be36f961eedf6deDeposit63428522023-01-05 1:11:4434 days 9 hrs ago0xa510986309460a0306a0082f6e449c8555f31a49OUT 0xff9361dff9f485f563b6e947b4adc51f9190a2c80 CRO0.5669321967640
0xd353211f94e8a9ed3a1a3445cdc9835df9a29f35db7ad301f85e383f4bb4c1b9Deposit62957422023-01-01 23:12:1937 days 11 hrs ago0xa510986309460a0306a0082f6e449c8555f31a49OUT 0xff9361dff9f485f563b6e947b4adc51f9190a2c80 CRO1.3891115379620
0xf7f08bd3e5002a547a4abc123152ff8cd7fdf12916657f115d442b033a9dd7c5Deposit62957342023-01-01 23:11:3437 days 11 hrs ago0xa510986309460a0306a0082f6e449c8555f31a49OUT 0xff9361dff9f485f563b6e947b4adc51f9190a2c80 CRO0.6398206532880
0x07821de3b3fd018ea400dd56160525de0996e22aaa1883b447990329595f8bb8Stake62558672022-12-30 8:40:0140 days 1 hr ago0xa510986309460a0306a0082f6e449c8555f31a49OUT Tectonic: Staking Pool0 CRO0.5066067636910
0xb2041c46088a7de0735782afe7412c91417ecd84cacdf0c9a5c033ce1d33a3f4Deposit62558622022-12-30 8:39:3340 days 1 hr ago0xa510986309460a0306a0082f6e449c8555f31a49OUT 0xff9361dff9f485f563b6e947b4adc51f9190a2c80 CRO1.4717469358880
0x11e3232b44edb9cc874f6856d07aefc55a746717fba5c09d6c62716b6937b467Deposit62558562022-12-30 8:38:5940 days 2 hrs ago0xa510986309460a0306a0082f6e449c8555f31a49OUT 0xff9361dff9f485f563b6e947b4adc51f9190a2c80 CRO0.640063351970
0x35259cab7f8c11705f2c1208b2c9bdc96ca63d438b4ea104087d1a33f4d02495Mint62416192022-12-29 10:19:4841 days 19 mins ago0xa510986309460a0306a0082f6e449c8555f31a49OUT 0xfe6934fdf050854749945921faa83191bccf20ad0 CRO1.1600422621760
0x47fa67c810d1367e7ea2b289523db2b57535fcc539658ffa70e061423d5afb77Deposit62415522022-12-29 10:13:3141 days 26 mins ago0xa510986309460a0306a0082f6e449c8555f31a49OUT 0xff9361dff9f485f563b6e947b4adc51f9190a2c80 CRO0.567478264390
0xa6cb9c0d3a4c5df5c2f2c679cf34f0a38083e94b16043668dd420e2613cc33bbClaim Tonic62201862022-12-28 0:42:1342 days 9 hrs ago0xa510986309460a0306a0082f6e449c8555f31a49OUT 0x96f41541c0a63e5229089c528fc9e0d3a8d7e84c0 CRO6.3182694366850
0xb2cfdf25351e4d15dd418b7d694b9faebd44370068a77585fb08132836105cf5Mint62201742022-12-28 0:41:0642 days 9 hrs ago0xa510986309460a0306a0082f6e449c8555f31a49OUT 0xfe6934fdf050854749945921faa83191bccf20ad0 CRO1.0875923927680
0x2ee3b588a622df0fc6d9c1d1f8854e52025e5cfac294da3ee625c6c5c5b16f9eDeposit62201462022-12-28 0:38:2842 days 10 hrs ago0xa510986309460a0306a0082f6e449c8555f31a49OUT 0xff9361dff9f485f563b6e947b4adc51f9190a2c80 CRO1.5449350037750
0x9bbad5ad615208c8754ee2755e3e439ef447b624f94a0faae94ead089c5cc431Deposit62201342022-12-28 0:37:2042 days 10 hrs ago0xa510986309460a0306a0082f6e449c8555f31a49OUT 0xff9361dff9f485f563b6e947b4adc51f9190a2c80 CRO0.6402812651930
[ Download CSV Export 
Parent Txn Hash Block From To Value
Loading

Contract Name:
0

Compiler Version
0

Optimization Enabled:
0

Other Settings:
-NA-
Block Transaction Gas Used Reward
Age Block Fee Address BC Fee Address Voting Power Jailed Incoming
Block Uncle Number Difficulty Gas Used Reward
Loading
Make sure to use the "Vote Down" button for any spammy posts, and the "Vote Up" for interesting conversations.